Regional Weather Roundup
Issued by NWS

Home | Current Version | Previous Version | Text Only | Print | Product List | Glossary Off
Versions: 1 2 3 4 5 6 7 8 9 10 11 12 13 14 15 16 17 18 19 20 21 22 23 24 25 26 27 28 29 30 31 32 33 34 35 36 37 38 39 40 41 42 43 44 45 46 47 48 49 50

000
ASUS43 KFSD 241810
RWRSD

WEATHER ROUNDUP FOR SOUTH DAKOTA
NATIONAL WEATHER SERVICE SIOUX FALLS SD
100 PM CDT TUE APR 24 2018

NOTE: "FAIR" INDICATES FEW OR NO CLOUDS BELOW 12,000 FEET WITH NO
SIGNIFICANT WEATHER AND/OR OBSTRUCTIONS TO VISIBILITY.


SDZ001>005-009-010-012>017-241900-
NORTHWEST AND NORTH CENTRAL SOUTH DAKOTA

CITY           SKY/WX    TMP DP  RH WIND       PRES   REMARKS
BUFFALO          N/A     48  23  37 N10       30.42F
FAITH            N/A     47  33  58 N21G31    30.44S
MOBRIDGE       MOSUNNY   51  39  63 NE14      30.40S
$$

SDZ012>016-024>037-041>051-057-063-072>074-241900-
SOUTHWEST AND SOUTH CENTRAL SOUTH DAKOTA

CITY           SKY/WX    TMP DP  RH WIND       PRES   REMARKS
RAPID CTY ARPT CLOUDY    41  30  65 N23G29    30.46S
PIERRE         CLOUDY    38  37  97 N15       30.41R
CUSTER         CLOUDY    35  17  47 NE9G23    30.40F WCI  28
ELLSWORTH AFB  CLOUDY    41  30  65 N20       30.46
PHILIP         CLOUDY    40  35  83 NW14      30.45S
PINE RIDGE     CLOUDY    38  35  89 NW13      30.45F
SPEARFISH      CLOUDY    37  28  70 NW8       30.50S
WINNER         LGT RAIN  42  38  85 N23G29    30.35R FOG
$$

SDZ004>011-016>023-039-040-241900-
NORTHEAST SOUTH DAKOTA

CITY           SKY/WX    TMP DP  RH WIND       PRES   REMARKS
ABERDEEN       CLOUDY    43  39  86 NE14      30.39S
WATERTOWN      CLOUDY    41  40  96 N18G25    30.29S
BROOKINGS      CLOUDY    46  41  82 NE21G35   30.24S
SISSETON         N/A     45  41  86 N17       30.34S
$$

SDZ017-020-022-023-036>040-048>070-241900-
SOUTHEAST SOUTH DAKOTA

CITY           SKY/WX    TMP DP  RH WIND       PRES   REMARKS
SIOUX FALLS    LGT RAIN  47  39  74 NE18      30.23S
HURON          LGT RAIN  45  40  82 N20G29    30.31R
CHAMBERLAIN    CLOUDY    43  43 100 N18G24    30.33R FOG
MITCHELL       CLOUDY    47  41  80 N16       30.29R
YANKTON        LGT RAIN  50  48  93 NW7       30.22R
$$

ABBREVIATIONS USED IN REMARKS
   TC - TEMPERATURE IN CELSIUS
  WCI - WIND CHILL INDEX
   HX - HEAT INDEX
  VSB - VISIBILITY





USA.gov is the U.S. government's official web portal to all federal, state and local government web resources and services.